Index of /20260426/WXO-DD/model_rdps/10km/00/004
Name Last modified Size Description
Parent Directory -
20260426T00Z_MSC_RDPS_AbsoluteVorticity_IsbL-0250_RLatLon0.09_PT004H.grib2 2026-04-26 02:40 617K
20260426T00Z_MSC_RDPS_AbsoluteVorticity_IsbL-0500_RLatLon0.09_PT004H.grib2 2026-04-26 02:40 564K
20260426T00Z_MSC_RDPS_AbsoluteVorticity_IsbL-0700_RLatLon0.09_PT004H.grib2 2026-04-26 02:40 621K
20260426T00Z_MSC_RDPS_AbsoluteVorticity_IsbL-0850_RLatLon0.09_PT004H.grib2 2026-04-26 02:40 771K
20260426T00Z_MSC_RDPS_AirTemp_AGL-120m_RLatLon0.09_PT004H.grib2 2026-04-26 02:40 382K
20260426T00Z_MSC_RDPS_AirTemp_AGL-2m_RLatLon0.09_PT004H.grib2 2026-04-26 02:40 609K
20260426T00Z_MSC_RDPS_AirTemp_AGL-40m_RLatLon0.09_PT004H.grib2 2026-04-26 02:40 393K
20260426T00Z_MSC_RDPS_AirTemp_AGL-80m_RLatLon0.09_PT004H.grib2 2026-04-26 02:40 386K
20260426T00Z_MSC_RDPS_AirTemp_IsbL-0001_RLatLon0.09_PT004H.grib2 2026-04-26 02:40 293K
20260426T00Z_MSC_RDPS_AirTemp_IsbL-0005_RLatLon0.09_PT004H.grib2 2026-04-26 02:40 283K
20260426T00Z_MSC_RDPS_AirTemp_IsbL-0010_RLatLon0.09_PT004H.grib2 2026-04-26 02:40 298K
20260426T00Z_MSC_RDPS_AirTemp_IsbL-0020_RLatLon0.09_PT004H.grib2 2026-04-26 02:40 314K
20260426T00Z_MSC_RDPS_AirTemp_IsbL-0030_RLatLon0.09_PT004H.grib2 2026-04-26 02:40 331K
20260426T00Z_MSC_RDPS_AirTemp_IsbL-0050_RLatLon0.09_PT004H.grib2 2026-04-26 02:40 311K
20260426T00Z_MSC_RDPS_AirTemp_IsbL-0100_RLatLon0.09_PT004H.grib2 2026-04-26 02:40 415K
20260426T00Z_MSC_RDPS_AirTemp_IsbL-0150_RLatLon0.09_PT004H.grib2 2026-04-26 02:40 419K
20260426T00Z_MSC_RDPS_AirTemp_IsbL-0175_RLatLon0.09_PT004H.grib2 2026-04-26 02:40 414K
20260426T00Z_MSC_RDPS_AirTemp_IsbL-0200_RLatLon0.09_PT004H.grib2 2026-04-26 02:40 419K
20260426T00Z_MSC_RDPS_AirTemp_IsbL-0225_RLatLon0.09_PT004H.grib2 2026-04-26 02:40 418K
20260426T00Z_MSC_RDPS_AirTemp_IsbL-0250_RLatLon0.09_PT004H.grib2 2026-04-26 02:40 426K
20260426T00Z_MSC_RDPS_AirTemp_IsbL-0275_RLatLon0.09_PT004H.grib2 2026-04-26 02:40 406K
20260426T00Z_MSC_RDPS_AirTemp_IsbL-0300_RLatLon0.09_PT004H.grib2 2026-04-26 02:40 414K
20260426T00Z_MSC_RDPS_AirTemp_IsbL-0350_RLatLon0.09_PT004H.grib2 2026-04-26 02:40 428K
20260426T00Z_MSC_RDPS_AirTemp_IsbL-0400_RLatLon0.09_PT004H.grib2 2026-04-26 02:40 393K
20260426T00Z_MSC_RDPS_AirTemp_IsbL-0450_RLatLon0.09_PT004H.grib2 2026-04-26 02:40 400K
20260426T00Z_MSC_RDPS_AirTemp_IsbL-0500_RLatLon0.09_PT004H.grib2 2026-04-26 02:40 413K
20260426T00Z_MSC_RDPS_AirTemp_IsbL-0550_RLatLon0.09_PT004H.grib2 2026-04-26 02:40 431K
20260426T00Z_MSC_RDPS_AirTemp_IsbL-0600_RLatLon0.09_PT004H.grib2 2026-04-26 02:40 447K
20260426T00Z_MSC_RDPS_AirTemp_IsbL-0650_RLatLon0.09_PT004H.grib2 2026-04-26 02:40 460K
20260426T00Z_MSC_RDPS_AirTemp_IsbL-0700_RLatLon0.09_PT004H.grib2 2026-04-26 02:40 377K
20260426T00Z_MSC_RDPS_AirTemp_IsbL-0750_RLatLon0.09_PT004H.grib2 2026-04-26 02:40 409K
20260426T00Z_MSC_RDPS_AirTemp_IsbL-0800_RLatLon0.09_PT004H.grib2 2026-04-26 02:40 448K
20260426T00Z_MSC_RDPS_AirTemp_IsbL-0850_RLatLon0.09_PT004H.grib2 2026-04-26 02:40 491K
20260426T00Z_MSC_RDPS_AirTemp_IsbL-0875_RLatLon0.09_PT004H.grib2 2026-04-26 02:40 517K
20260426T00Z_MSC_RDPS_AirTemp_IsbL-0900_RLatLon0.09_PT004H.grib2 2026-04-26 02:40 512K
20260426T00Z_MSC_RDPS_AirTemp_IsbL-0925_RLatLon0.09_PT004H.grib2 2026-04-26 02:40 511K
20260426T00Z_MSC_RDPS_AirTemp_IsbL-0950_RLatLon0.09_PT004H.grib2 2026-04-26 02:40 512K
20260426T00Z_MSC_RDPS_AirTemp_IsbL-0970_RLatLon0.09_PT004H.grib2 2026-04-26 02:40 518K
20260426T00Z_MSC_RDPS_AirTemp_IsbL-0985_RLatLon0.09_PT004H.grib2 2026-04-26 02:40 507K
20260426T00Z_MSC_RDPS_AirTemp_IsbL-1000_RLatLon0.09_PT004H.grib2 2026-04-26 02:40 474K
20260426T00Z_MSC_RDPS_AirTemp_IsbL-1015_RLatLon0.09_PT004H.grib2 2026-04-26 02:40 468K
20260426T00Z_MSC_RDPS_Albedo_Sfc_RLatLon0.09_PT004H.grib2 2026-04-26 02:40 165K
20260426T00Z_MSC_RDPS_CAPE_Sfc_RLatLon0.09_PT004H.grib2 2026-04-26 02:40 1.6M
20260426T00Z_MSC_RDPS_CIN_Sfc_RLatLon0.09_PT004H.grib2 2026-04-26 02:40 1.2M
20260426T00Z_MSC_RDPS_CloudWater_EAtm_RLatLon0.09_PT004H.grib2 2026-04-26 02:40 213K
20260426T00Z_MSC_RDPS_ConvectivePrecip-Accum_Sfc_RLatLon0.09_PT004H.grib2 2026-04-26 02:40 444K
20260426T00Z_MSC_RDPS_DewPointDepression_AGL-2m_RLatLon0.09_PT004H.grib2 2026-04-26 02:40 381K
20260426T00Z_MSC_RDPS_DewPointDepression_IsbL-0001_RLatLon0.09_PT004H.grib2 2026-04-26 02:40 193
20260426T00Z_MSC_RDPS_DewPointDepression_IsbL-0005_RLatLon0.09_PT004H.grib2 2026-04-26 02:40 193
20260426T00Z_MSC_RDPS_DewPointDepression_IsbL-0010_RLatLon0.09_PT004H.grib2 2026-04-26 02:40 193
20260426T00Z_MSC_RDPS_DewPointDepression_IsbL-0020_RLatLon0.09_PT004H.grib2 2026-04-26 02:40 193
20260426T00Z_MSC_RDPS_DewPointDepression_IsbL-0030_RLatLon0.09_PT004H.grib2 2026-04-26 02:40 193
20260426T00Z_MSC_RDPS_DewPointDepression_IsbL-0050_RLatLon0.09_PT004H.grib2 2026-04-26 02:40 101K
20260426T00Z_MSC_RDPS_DewPointDepression_IsbL-0100_RLatLon0.09_PT004H.grib2 2026-04-26 02:40 129K
20260426T00Z_MSC_RDPS_DewPointDepression_IsbL-0150_RLatLon0.09_PT004H.grib2 2026-04-26 02:40 156K
20260426T00Z_MSC_RDPS_DewPointDepression_IsbL-0175_RLatLon0.09_PT004H.grib2 2026-04-26 02:40 193K
20260426T00Z_MSC_RDPS_DewPointDepression_IsbL-0200_RLatLon0.09_PT004H.grib2 2026-04-26 02:40 225K
20260426T00Z_MSC_RDPS_DewPointDepression_IsbL-0225_RLatLon0.09_PT004H.grib2 2026-04-26 02:40 263K
20260426T00Z_MSC_RDPS_DewPointDepression_IsbL-0250_RLatLon0.09_PT004H.grib2 2026-04-26 02:40 303K
20260426T00Z_MSC_RDPS_DewPointDepression_IsbL-0275_RLatLon0.09_PT004H.grib2 2026-04-26 02:40 311K
20260426T00Z_MSC_RDPS_DewPointDepression_IsbL-0300_RLatLon0.09_PT004H.grib2 2026-04-26 02:40 330K
20260426T00Z_MSC_RDPS_DewPointDepression_IsbL-0350_RLatLon0.09_PT004H.grib2 2026-04-26 02:40 339K
20260426T00Z_MSC_RDPS_DewPointDepression_IsbL-0400_RLatLon0.09_PT004H.grib2 2026-04-26 02:40 346K
20260426T00Z_MSC_RDPS_DewPointDepression_IsbL-0450_RLatLon0.09_PT004H.grib2 2026-04-26 02:40 352K
20260426T00Z_MSC_RDPS_DewPointDepression_IsbL-0500_RLatLon0.09_PT004H.grib2 2026-04-26 02:40 360K
20260426T00Z_MSC_RDPS_DewPointDepression_IsbL-0550_RLatLon0.09_PT004H.grib2 2026-04-26 02:40 376K
20260426T00Z_MSC_RDPS_DewPointDepression_IsbL-0600_RLatLon0.09_PT004H.grib2 2026-04-26 02:40 381K
20260426T00Z_MSC_RDPS_DewPointDepression_IsbL-0650_RLatLon0.09_PT004H.grib2 2026-04-26 02:40 382K
20260426T00Z_MSC_RDPS_DewPointDepression_IsbL-0700_RLatLon0.09_PT004H.grib2 2026-04-26 02:40 393K
20260426T00Z_MSC_RDPS_DewPointDepression_IsbL-0750_RLatLon0.09_PT004H.grib2 2026-04-26 02:40 413K
20260426T00Z_MSC_RDPS_DewPointDepression_IsbL-0800_RLatLon0.09_PT004H.grib2 2026-04-26 02:40 437K
20260426T00Z_MSC_RDPS_DewPointDepression_IsbL-0850_RLatLon0.09_PT004H.grib2 2026-04-26 02:40 459K
20260426T00Z_MSC_RDPS_DewPointDepression_IsbL-0875_RLatLon0.09_PT004H.grib2 2026-04-26 02:40 460K
20260426T00Z_MSC_RDPS_DewPointDepression_IsbL-0900_RLatLon0.09_PT004H.grib2 2026-04-26 02:40 453K
20260426T00Z_MSC_RDPS_DewPointDepression_IsbL-0925_RLatLon0.09_PT004H.grib2 2026-04-26 02:40 445K
20260426T00Z_MSC_RDPS_DewPointDepression_IsbL-0950_RLatLon0.09_PT004H.grib2 2026-04-26 02:40 437K
20260426T00Z_MSC_RDPS_DewPointDepression_IsbL-0970_RLatLon0.09_PT004H.grib2 2026-04-26 02:40 424K
20260426T00Z_MSC_RDPS_DewPointDepression_IsbL-0985_RLatLon0.09_PT004H.grib2 2026-04-26 02:40 416K
20260426T00Z_MSC_RDPS_DewPointDepression_IsbL-1000_RLatLon0.09_PT004H.grib2 2026-04-26 02:40 407K
20260426T00Z_MSC_RDPS_DewPointDepression_IsbL-1015_RLatLon0.09_PT004H.grib2 2026-04-26 02:40 398K
20260426T00Z_MSC_RDPS_DewPoint_AGL-2m_RLatLon0.09_PT004H.grib2 2026-04-26 02:40 295K
20260426T00Z_MSC_RDPS_DownwardLongwaveRadiationFlux-Accum_Sfc_RLatLon0.09_PT004H.grib2 2026-04-26 02:40 482K
20260426T00Z_MSC_RDPS_DownwardShortwaveRadiationFlux-Accum_NTAtm_RLatLon0.09_PT004H.grib2 2026-04-26 02:40 93K
20260426T00Z_MSC_RDPS_DownwardShortwaveRadiationFlux-Accum_Sfc_RLatLon0.09_PT004H.grib2 2026-04-26 02:40 284K
20260426T00Z_MSC_RDPS_FreezingRain-Accum1h_Sfc_RLatLon0.09_PT004H.grib2 2026-04-26 02:40 25K
20260426T00Z_MSC_RDPS_FreezingRain-Accum_Sfc_RLatLon0.09_PT004H.grib2 2026-04-26 02:40 33K
20260426T00Z_MSC_RDPS_GeopotentialHeight_IsbL-0001_RLatLon0.09_PT004H.grib2 2026-04-26 02:40 266K
20260426T00Z_MSC_RDPS_GeopotentialHeight_IsbL-0005_RLatLon0.09_PT004H.grib2 2026-04-26 02:40 333K
20260426T00Z_MSC_RDPS_GeopotentialHeight_IsbL-0010_RLatLon0.09_PT004H.grib2 2026-04-26 02:40 335K
20260426T00Z_MSC_RDPS_GeopotentialHeight_IsbL-0020_RLatLon0.09_PT004H.grib2 2026-04-26 02:40 301K
20260426T00Z_MSC_RDPS_GeopotentialHeight_IsbL-0030_RLatLon0.09_PT004H.grib2 2026-04-26 02:40 397K
20260426T00Z_MSC_RDPS_GeopotentialHeight_IsbL-0050_RLatLon0.09_PT004H.grib2 2026-04-26 02:40 304K
20260426T00Z_MSC_RDPS_GeopotentialHeight_IsbL-0100_RLatLon0.09_PT004H.grib2 2026-04-26 02:40 283K
20260426T00Z_MSC_RDPS_GeopotentialHeight_IsbL-0150_RLatLon0.09_PT004H.grib2 2026-04-26 02:40 228K
20260426T00Z_MSC_RDPS_GeopotentialHeight_IsbL-0175_RLatLon0.09_PT004H.grib2 2026-04-26 02:40 230K
20260426T00Z_MSC_RDPS_GeopotentialHeight_IsbL-0200_RLatLon0.09_PT004H.grib2 2026-04-26 02:40 264K
20260426T00Z_MSC_RDPS_GeopotentialHeight_IsbL-0225_RLatLon0.09_PT004H.grib2 2026-04-26 02:40 266K
20260426T00Z_MSC_RDPS_GeopotentialHeight_IsbL-0250_RLatLon0.09_PT004H.grib2 2026-04-26 02:40 267K
20260426T00Z_MSC_RDPS_GeopotentialHeight_IsbL-0275_RLatLon0.09_PT004H.grib2 2026-04-26 02:40 266K
20260426T00Z_MSC_RDPS_GeopotentialHeight_IsbL-0300_RLatLon0.09_PT004H.grib2 2026-04-26 02:40 234K
20260426T00Z_MSC_RDPS_GeopotentialHeight_IsbL-0350_RLatLon0.09_PT004H.grib2 2026-04-26 02:40 231K
20260426T00Z_MSC_RDPS_GeopotentialHeight_IsbL-0400_RLatLon0.09_PT004H.grib2 2026-04-26 02:40 228K
20260426T00Z_MSC_RDPS_GeopotentialHeight_IsbL-0450_RLatLon0.09_PT004H.grib2 2026-04-26 02:40 296K
20260426T00Z_MSC_RDPS_GeopotentialHeight_IsbL-0500_RLatLon0.09_PT004H.grib2 2026-04-26 02:40 292K
20260426T00Z_MSC_RDPS_GeopotentialHeight_IsbL-0550_RLatLon0.09_PT004H.grib2 2026-04-26 02:40 288K
20260426T00Z_MSC_RDPS_GeopotentialHeight_IsbL-0600_RLatLon0.09_PT004H.grib2 2026-04-26 02:40 285K
20260426T00Z_MSC_RDPS_GeopotentialHeight_IsbL-0650_RLatLon0.09_PT004H.grib2 2026-04-26 02:40 281K
20260426T00Z_MSC_RDPS_GeopotentialHeight_IsbL-0700_RLatLon0.09_PT004H.grib2 2026-04-26 02:40 279K
20260426T00Z_MSC_RDPS_GeopotentialHeight_IsbL-0750_RLatLon0.09_PT004H.grib2 2026-04-26 02:40 280K
20260426T00Z_MSC_RDPS_GeopotentialHeight_IsbL-0800_RLatLon0.09_PT004H.grib2 2026-04-26 02:40 257K
20260426T00Z_MSC_RDPS_GeopotentialHeight_IsbL-0850_RLatLon0.09_PT004H.grib2 2026-04-26 02:40 262K
20260426T00Z_MSC_RDPS_GeopotentialHeight_IsbL-0875_RLatLon0.09_PT004H.grib2 2026-04-26 02:40 265K
20260426T00Z_MSC_RDPS_GeopotentialHeight_IsbL-0900_RLatLon0.09_PT004H.grib2 2026-04-26 02:40 270K
20260426T00Z_MSC_RDPS_GeopotentialHeight_IsbL-0925_RLatLon0.09_PT004H.grib2 2026-04-26 02:40 299K
20260426T00Z_MSC_RDPS_GeopotentialHeight_IsbL-0950_RLatLon0.09_PT004H.grib2 2026-04-26 02:40 303K
20260426T00Z_MSC_RDPS_GeopotentialHeight_IsbL-0970_RLatLon0.09_PT004H.grib2 2026-04-26 02:40 308K
20260426T00Z_MSC_RDPS_GeopotentialHeight_IsbL-0985_RLatLon0.09_PT004H.grib2 2026-04-26 02:40 313K
20260426T00Z_MSC_RDPS_GeopotentialHeight_IsbL-1000_RLatLon0.09_PT004H.grib2 2026-04-26 02:40 320K
20260426T00Z_MSC_RDPS_GeopotentialHeight_IsbL-1015_RLatLon0.09_PT004H.grib2 2026-04-26 02:40 329K
20260426T00Z_MSC_RDPS_Humidex_Sfc_RLatLon0.09_PT004H.grib2 2026-04-26 02:40 2.4M
20260426T00Z_MSC_RDPS_IcePellets-Accum1h_Sfc_RLatLon0.09_PT004H.grib2 2026-04-26 02:40 15K
20260426T00Z_MSC_RDPS_IcePellets-Accum_Sfc_RLatLon0.09_PT004H.grib2 2026-04-26 02:40 20K
20260426T00Z_MSC_RDPS_KIndex_Sfc_RLatLon0.09_PT004H.grib2 2026-04-26 02:40 2.3M
20260426T00Z_MSC_RDPS_LatentHeatNetFlux_Sfc_RLatLon0.09_PT004H.grib2 2026-04-26 02:40 298K
20260426T00Z_MSC_RDPS_LiftedIndex-MU-VT_IsbL-0500_RLatLon0.09_PT004H.grib2 2026-04-26 02:40 2.4M
20260426T00Z_MSC_RDPS_NetLongwaveRadiationFlux-Accum_Sfc_RLatLon0.09_PT004H.grib2 2026-04-26 02:40 615K
20260426T00Z_MSC_RDPS_NetShortwaveRadiationFlux-Accum_Sfc_RLatLon0.09_PT004H.grib2 2026-04-26 02:40 269K
20260426T00Z_MSC_RDPS_PlanetaryBoundaryLayerHeight_Sfc_RLatLon0.09_PT004H.grib2 2026-04-26 02:40 1.1M
20260426T00Z_MSC_RDPS_Precip-Accum1h_Sfc_RLatLon0.09_PT004H.grib2 2026-04-26 02:40 1.2M
20260426T00Z_MSC_RDPS_Precip-Accum_Sfc_RLatLon0.09_PT004H.grib2 2026-04-26 02:40 1.2M
20260426T00Z_MSC_RDPS_PrecipRate_Sfc_RLatLon0.09_PT004H.grib2 2026-04-26 02:40 159K
20260426T00Z_MSC_RDPS_PrecipType-Instant_Sfc_RLatLon0.09_PT004H.grib2 2026-04-26 02:40 551K
20260426T00Z_MSC_RDPS_Pressure-Trend3h_Sfc_RLatLon0.09_PT004H.grib2 2026-04-26 02:40 1.2M
20260426T00Z_MSC_RDPS_Pressure_MSL_RLatLon0.09_PT004H.grib2 2026-04-26 02:40 233K
20260426T00Z_MSC_RDPS_Pressure_PVU-1.5_RLatLon0.09_PT004H.grib2 2026-04-26 02:40 2.5M
20260426T00Z_MSC_RDPS_Pressure_PVU-1_RLatLon0.09_PT004H.grib2 2026-04-26 02:40 2.4M
20260426T00Z_MSC_RDPS_Pressure_PVU-2_RLatLon0.09_PT004H.grib2 2026-04-26 02:40 2.4M
20260426T00Z_MSC_RDPS_Pressure_Sfc_RLatLon0.09_PT004H.grib2 2026-04-26 02:40 497K
20260426T00Z_MSC_RDPS_RadiativeTemp_Sfc_RLatLon0.09_PT004H.grib2 2026-04-26 02:40 291K
20260426T00Z_MSC_RDPS_Rain-Accum1h_Sfc_RLatLon0.09_PT004H.grib2 2026-04-26 02:40 563K
20260426T00Z_MSC_RDPS_Rain-Accum_Sfc_RLatLon0.09_PT004H.grib2 2026-04-26 02:40 846K
20260426T00Z_MSC_RDPS_RelativeHumidity_AGL-2m_RLatLon0.09_PT004H.grib2 2026-04-26 02:40 1.0M
20260426T00Z_MSC_RDPS_RelativeHumidity_IsbL-0010_RLatLon0.09_PT004H.grib2 2026-04-26 02:40 632K
20260426T00Z_MSC_RDPS_RelativeHumidity_IsbL-0020_RLatLon0.09_PT004H.grib2 2026-04-26 02:40 657K
20260426T00Z_MSC_RDPS_RelativeHumidity_IsbL-0030_RLatLon0.09_PT004H.grib2 2026-04-26 02:40 539K
20260426T00Z_MSC_RDPS_RelativeHumidity_IsbL-0050_RLatLon0.09_PT004H.grib2 2026-04-26 02:40 373K
20260426T00Z_MSC_RDPS_RelativeHumidity_IsbL-0100_RLatLon0.09_PT004H.grib2 2026-04-26 02:40 274K
20260426T00Z_MSC_RDPS_RelativeHumidity_IsbL-0150_RLatLon0.09_PT004H.grib2 2026-04-26 02:40 409K
20260426T00Z_MSC_RDPS_RelativeHumidity_IsbL-0175_RLatLon0.09_PT004H.grib2 2026-04-26 02:40 486K
20260426T00Z_MSC_RDPS_RelativeHumidity_IsbL-0200_RLatLon0.09_PT004H.grib2 2026-04-26 02:40 565K
20260426T00Z_MSC_RDPS_RelativeHumidity_IsbL-0225_RLatLon0.09_PT004H.grib2 2026-04-26 02:40 631K
20260426T00Z_MSC_RDPS_RelativeHumidity_IsbL-0250_RLatLon0.09_PT004H.grib2 2026-04-26 02:40 701K
20260426T00Z_MSC_RDPS_RelativeHumidity_IsbL-0275_RLatLon0.09_PT004H.grib2 2026-04-26 02:40 723K
20260426T00Z_MSC_RDPS_RelativeHumidity_IsbL-0300_RLatLon0.09_PT004H.grib2 2026-04-26 02:40 767K
20260426T00Z_MSC_RDPS_RelativeHumidity_IsbL-0350_RLatLon0.09_PT004H.grib2 2026-04-26 02:40 790K
20260426T00Z_MSC_RDPS_RelativeHumidity_IsbL-0400_RLatLon0.09_PT004H.grib2 2026-04-26 02:40 799K
20260426T00Z_MSC_RDPS_RelativeHumidity_IsbL-0450_RLatLon0.09_PT004H.grib2 2026-04-26 02:40 801K
20260426T00Z_MSC_RDPS_RelativeHumidity_IsbL-0500_RLatLon0.09_PT004H.grib2 2026-04-26 02:40 824K
20260426T00Z_MSC_RDPS_RelativeHumidity_IsbL-0550_RLatLon0.09_PT004H.grib2 2026-04-26 02:40 847K
20260426T00Z_MSC_RDPS_RelativeHumidity_IsbL-0600_RLatLon0.09_PT004H.grib2 2026-04-26 02:40 864K
20260426T00Z_MSC_RDPS_RelativeHumidity_IsbL-0650_RLatLon0.09_PT004H.grib2 2026-04-26 02:40 872K
20260426T00Z_MSC_RDPS_RelativeHumidity_IsbL-0700_RLatLon0.09_PT004H.grib2 2026-04-26 02:40 894K
20260426T00Z_MSC_RDPS_RelativeHumidity_IsbL-0750_RLatLon0.09_PT004H.grib2 2026-04-26 02:40 936K
20260426T00Z_MSC_RDPS_RelativeHumidity_IsbL-0800_RLatLon0.09_PT004H.grib2 2026-04-26 02:40 1.0M
20260426T00Z_MSC_RDPS_RelativeHumidity_IsbL-0850_RLatLon0.09_PT004H.grib2 2026-04-26 02:40 1.0M
20260426T00Z_MSC_RDPS_RelativeHumidity_IsbL-0875_RLatLon0.09_PT004H.grib2 2026-04-26 02:40 1.0M
20260426T00Z_MSC_RDPS_RelativeHumidity_IsbL-0900_RLatLon0.09_PT004H.grib2 2026-04-26 02:40 1.1M
20260426T00Z_MSC_RDPS_RelativeHumidity_IsbL-0925_RLatLon0.09_PT004H.grib2 2026-04-26 02:40 1.1M
20260426T00Z_MSC_RDPS_RelativeHumidity_IsbL-0950_RLatLon0.09_PT004H.grib2 2026-04-26 02:40 1.0M
20260426T00Z_MSC_RDPS_RelativeHumidity_IsbL-0970_RLatLon0.09_PT004H.grib2 2026-04-26 02:40 1.0M
20260426T00Z_MSC_RDPS_RelativeHumidity_IsbL-0985_RLatLon0.09_PT004H.grib2 2026-04-26 02:40 1.0M
20260426T00Z_MSC_RDPS_RelativeHumidity_IsbL-1000_RLatLon0.09_PT004H.grib2 2026-04-26 02:40 1.0M
20260426T00Z_MSC_RDPS_RelativeHumidity_IsbL-1015_RLatLon0.09_PT004H.grib2 2026-04-26 02:40 1.0M
20260426T00Z_MSC_RDPS_Runoff-Accum_Sfc_RLatLon0.09_PT004H.grib2 2026-04-26 02:40 30K
20260426T00Z_MSC_RDPS_SWEATIndex_Sfc_RLatLon0.09_PT004H.grib2 2026-04-26 02:40 2.4M
20260426T00Z_MSC_RDPS_SeeingIndex_EAtm_RLatLon0.09_PT004H.grib2 2026-04-26 02:40 1.0M
20260426T00Z_MSC_RDPS_SensibleHeatNetFlux_Sfc_RLatLon0.09_PT004H.grib2 2026-04-26 02:40 279K
20260426T00Z_MSC_RDPS_ShowalterIndex_IsbL-0500_RLatLon0.09_PT004H.grib2 2026-04-26 02:40 2.6M
20260426T00Z_MSC_RDPS_SkyTransparencyIndex_EAtm_RLatLon0.09_PT004H.grib2 2026-04-26 02:40 676K
20260426T00Z_MSC_RDPS_Snow-Accum1h_Sfc_RLatLon0.09_PT004H.grib2 2026-04-26 02:40 467K
20260426T00Z_MSC_RDPS_Snow-Accum_Sfc_RLatLon0.09_PT004H.grib2 2026-04-26 02:40 639K
20260426T00Z_MSC_RDPS_SnowDensity_Sfc_RLatLon0.09_PT004H.grib2 2026-04-26 02:40 175K
20260426T00Z_MSC_RDPS_SnowDepth_Sfc_RLatLon0.09_PT004H.grib2 2026-04-26 02:40 714K
20260426T00Z_MSC_RDPS_SoilTemp_DBS-0to10cm_RLatLon0.09_PT004H.grib2 2026-04-26 02:40 194K
20260426T00Z_MSC_RDPS_SoilTemp_Sfc_RLatLon0.09_PT004H.grib2 2026-04-26 02:40 253K
20260426T00Z_MSC_RDPS_SoilVolumetricIceContent_Sfc_RLatLon0.09_PT004H.grib2 2026-04-26 02:40 168K
20260426T00Z_MSC_RDPS_SoilVolumetricWaterContent_DBS-0to10cm_RLatLon0.09_PT004H.grib2 2026-04-26 02:40 256K
20260426T00Z_MSC_RDPS_SoilVolumetricWaterContent_DBS-0to1cm_RLatLon0.09_PT004H.grib2 2026-04-26 02:40 333K
20260426T00Z_MSC_RDPS_SpecificHumidity_AGL-120m_RLatLon0.09_PT004H.grib2 2026-04-26 02:40 467K
20260426T00Z_MSC_RDPS_SpecificHumidity_AGL-2m_RLatLon0.09_PT004H.grib2 2026-04-26 02:40 624K
20260426T00Z_MSC_RDPS_SpecificHumidity_AGL-40m_RLatLon0.09_PT004H.grib2 2026-04-26 02:40 470K
20260426T00Z_MSC_RDPS_SpecificHumidity_AGL-80m_RLatLon0.09_PT004H.grib2 2026-04-26 02:40 467K
20260426T00Z_MSC_RDPS_SpecificHumidity_IsbL-0001_RLatLon0.09_PT004H.grib2 2026-04-26 02:40 333K
20260426T00Z_MSC_RDPS_SpecificHumidity_IsbL-0005_RLatLon0.09_PT004H.grib2 2026-04-26 02:40 351K
20260426T00Z_MSC_RDPS_SpecificHumidity_IsbL-0010_RLatLon0.09_PT004H.grib2 2026-04-26 02:40 391K
20260426T00Z_MSC_RDPS_SpecificHumidity_IsbL-0020_RLatLon0.09_PT004H.grib2 2026-04-26 02:40 384K
20260426T00Z_MSC_RDPS_SpecificHumidity_IsbL-0030_RLatLon0.09_PT004H.grib2 2026-04-26 02:40 369K
20260426T00Z_MSC_RDPS_SpecificHumidity_IsbL-0050_RLatLon0.09_PT004H.grib2 2026-04-26 02:40 476K
20260426T00Z_MSC_RDPS_SpecificHumidity_IsbL-0100_RLatLon0.09_PT004H.grib2 2026-04-26 02:40 346K
20260426T00Z_MSC_RDPS_SpecificHumidity_IsbL-0150_RLatLon0.09_PT004H.grib2 2026-04-26 02:40 451K
20260426T00Z_MSC_RDPS_SpecificHumidity_IsbL-0175_RLatLon0.09_PT004H.grib2 2026-04-26 02:40 550K
20260426T00Z_MSC_RDPS_SpecificHumidity_IsbL-0200_RLatLon0.09_PT004H.grib2 2026-04-26 02:40 456K
20260426T00Z_MSC_RDPS_SpecificHumidity_IsbL-0225_RLatLon0.09_PT004H.grib2 2026-04-26 02:40 462K
20260426T00Z_MSC_RDPS_SpecificHumidity_IsbL-0250_RLatLon0.09_PT004H.grib2 2026-04-26 02:40 527K
20260426T00Z_MSC_RDPS_SpecificHumidity_IsbL-0275_RLatLon0.09_PT004H.grib2 2026-04-26 02:40 482K
20260426T00Z_MSC_RDPS_SpecificHumidity_IsbL-0300_RLatLon0.09_PT004H.grib2 2026-04-26 02:40 454K
20260426T00Z_MSC_RDPS_SpecificHumidity_IsbL-0350_RLatLon0.09_PT004H.grib2 2026-04-26 02:40 569K
20260426T00Z_MSC_RDPS_SpecificHumidity_IsbL-0400_RLatLon0.09_PT004H.grib2 2026-04-26 02:40 521K
20260426T00Z_MSC_RDPS_SpecificHumidity_IsbL-0450_RLatLon0.09_PT004H.grib2 2026-04-26 02:40 569K
20260426T00Z_MSC_RDPS_SpecificHumidity_IsbL-0500_RLatLon0.09_PT004H.grib2 2026-04-26 02:40 510K
20260426T00Z_MSC_RDPS_SpecificHumidity_IsbL-0550_RLatLon0.09_PT004H.grib2 2026-04-26 02:40 568K
20260426T00Z_MSC_RDPS_SpecificHumidity_IsbL-0600_RLatLon0.09_PT004H.grib2 2026-04-26 02:40 632K
20260426T00Z_MSC_RDPS_SpecificHumidity_IsbL-0650_RLatLon0.09_PT004H.grib2 2026-04-26 02:40 546K
20260426T00Z_MSC_RDPS_SpecificHumidity_IsbL-0700_RLatLon0.09_PT004H.grib2 2026-04-26 02:40 586K
20260426T00Z_MSC_RDPS_SpecificHumidity_IsbL-0750_RLatLon0.09_PT004H.grib2 2026-04-26 02:40 640K
20260426T00Z_MSC_RDPS_SpecificHumidity_IsbL-0800_RLatLon0.09_PT004H.grib2 2026-04-26 02:40 715K
20260426T00Z_MSC_RDPS_SpecificHumidity_IsbL-0850_RLatLon0.09_PT004H.grib2 2026-04-26 02:40 782K
20260426T00Z_MSC_RDPS_SpecificHumidity_IsbL-0875_RLatLon0.09_PT004H.grib2 2026-04-26 02:40 807K
20260426T00Z_MSC_RDPS_SpecificHumidity_IsbL-0900_RLatLon0.09_PT004H.grib2 2026-04-26 02:40 820K
20260426T00Z_MSC_RDPS_SpecificHumidity_IsbL-0925_RLatLon0.09_PT004H.grib2 2026-04-26 02:40 683K
20260426T00Z_MSC_RDPS_SpecificHumidity_IsbL-0950_RLatLon0.09_PT004H.grib2 2026-04-26 02:40 680K
20260426T00Z_MSC_RDPS_SpecificHumidity_IsbL-0970_RLatLon0.09_PT004H.grib2 2026-04-26 02:40 667K
20260426T00Z_MSC_RDPS_SpecificHumidity_IsbL-0985_RLatLon0.09_PT004H.grib2 2026-04-26 02:40 656K
20260426T00Z_MSC_RDPS_SpecificHumidity_IsbL-1000_RLatLon0.09_PT004H.grib2 2026-04-26 02:40 644K
20260426T00Z_MSC_RDPS_SpecificHumidity_IsbL-1015_RLatLon0.09_PT004H.grib2 2026-04-26 02:40 634K
20260426T00Z_MSC_RDPS_SpecificHumidity_Sfc_RLatLon0.09_PT004H.grib2 2026-04-26 02:40 281K
20260426T00Z_MSC_RDPS_StormRelativeHelicity_EtaL-10000_RLatLon0.09_PT004H.grib2 2026-04-26 02:40 1.1M
20260426T00Z_MSC_RDPS_StormSeverityIndex_EtaL-10000_RLatLon0.09_PT004H.grib2 2026-04-26 02:40 1.2M
20260426T00Z_MSC_RDPS_Thickness_IsbL-0850to0700_RLatLon0.09_PT004H.grib2 2026-04-26 02:40 176K
20260426T00Z_MSC_RDPS_Thickness_IsbL-1000to0500_RLatLon0.09_PT004H.grib2 2026-04-26 02:40 200K
20260426T00Z_MSC_RDPS_Thickness_IsbL-1000to0850_RLatLon0.09_PT004H.grib2 2026-04-26 02:40 183K
20260426T00Z_MSC_RDPS_TotalCloudCover_Sfc_RLatLon0.09_PT004H.grib2 2026-04-26 02:40 661K
20260426T00Z_MSC_RDPS_TotalTotalsIndex_Sfc_RLatLon0.09_PT004H.grib2 2026-04-26 02:40 2.3M
20260426T00Z_MSC_RDPS_UVIndex-ClearSky_Sfc_RLatLon0.09_PT004H.grib2 2026-04-26 02:40 107K
20260426T00Z_MSC_RDPS_UVIndex_Sfc_RLatLon0.09_PT004H.grib2 2026-04-26 02:40 186K
20260426T00Z_MSC_RDPS_UpwardLongwaveRadiationFlux_NTAtm_RLatLon0.09_PT004H.grib2 2026-04-26 02:40 489K
20260426T00Z_MSC_RDPS_UpwardShortwaveRadiationFlux_NTAtm_RLatLon0.09_PT004H.grib2 2026-04-26 02:40 155K
20260426T00Z_MSC_RDPS_VerticalVelocity_IsbL-0250_RLatLon0.09_PT004H.grib2 2026-04-26 02:40 433K
20260426T00Z_MSC_RDPS_VerticalVelocity_IsbL-0500_RLatLon0.09_PT004H.grib2 2026-04-26 02:40 541K
20260426T00Z_MSC_RDPS_VerticalVelocity_IsbL-0700_RLatLon0.09_PT004H.grib2 2026-04-26 02:40 590K
20260426T00Z_MSC_RDPS_VerticalVelocity_IsbL-0850_RLatLon0.09_PT004H.grib2 2026-04-26 02:40 687K
20260426T00Z_MSC_RDPS_VerticalWindShear_EtaL-6500_RLatLon0.09_PT004H.grib2 2026-04-26 02:40 1.2M
20260426T00Z_MSC_RDPS_WindChill_Sfc_RLatLon0.09_PT004H.grib2 2026-04-26 02:40 1.1M
20260426T00Z_MSC_RDPS_WindDir_AGL-10m_RLatLon0.09_PT004H.grib2 2026-04-26 02:40 970K
20260426T00Z_MSC_RDPS_WindDir_AGL-120m_RLatLon0.09_PT004H.grib2 2026-04-26 02:40 605K
20260426T00Z_MSC_RDPS_WindDir_AGL-40m_RLatLon0.09_PT004H.grib2 2026-04-26 02:40 637K
20260426T00Z_MSC_RDPS_WindDir_AGL-80m_RLatLon0.09_PT004H.grib2 2026-04-26 02:40 617K
20260426T00Z_MSC_RDPS_WindDir_IsbL-0001_RLatLon0.09_PT004H.grib2 2026-04-26 02:40 266K
20260426T00Z_MSC_RDPS_WindDir_IsbL-0005_RLatLon0.09_PT004H.grib2 2026-04-26 02:40 361K
20260426T00Z_MSC_RDPS_WindDir_IsbL-0010_RLatLon0.09_PT004H.grib2 2026-04-26 02:40 383K
20260426T00Z_MSC_RDPS_WindDir_IsbL-0020_RLatLon0.09_PT004H.grib2 2026-04-26 02:40 389K
20260426T00Z_MSC_RDPS_WindDir_IsbL-0030_RLatLon0.09_PT004H.grib2 2026-04-26 02:40 410K
20260426T00Z_MSC_RDPS_WindDir_IsbL-0050_RLatLon0.09_PT004H.grib2 2026-04-26 02:40 428K
20260426T00Z_MSC_RDPS_WindDir_IsbL-0100_RLatLon0.09_PT004H.grib2 2026-04-26 02:40 430K
20260426T00Z_MSC_RDPS_WindDir_IsbL-0150_RLatLon0.09_PT004H.grib2 2026-04-26 02:40 423K
20260426T00Z_MSC_RDPS_WindDir_IsbL-0175_RLatLon0.09_PT004H.grib2 2026-04-26 02:40 436K
20260426T00Z_MSC_RDPS_WindDir_IsbL-0200_RLatLon0.09_PT004H.grib2 2026-04-26 02:40 445K
20260426T00Z_MSC_RDPS_WindDir_IsbL-0225_RLatLon0.09_PT004H.grib2 2026-04-26 02:40 444K
20260426T00Z_MSC_RDPS_WindDir_IsbL-0250_RLatLon0.09_PT004H.grib2 2026-04-26 02:40 446K
20260426T00Z_MSC_RDPS_WindDir_IsbL-0275_RLatLon0.09_PT004H.grib2 2026-04-26 02:40 469K
20260426T00Z_MSC_RDPS_WindDir_IsbL-0300_RLatLon0.09_PT004H.grib2 2026-04-26 02:40 470K
20260426T00Z_MSC_RDPS_WindDir_IsbL-0350_RLatLon0.09_PT004H.grib2 2026-04-26 02:40 500K
20260426T00Z_MSC_RDPS_WindDir_IsbL-0400_RLatLon0.09_PT004H.grib2 2026-04-26 02:40 516K
20260426T00Z_MSC_RDPS_WindDir_IsbL-0450_RLatLon0.09_PT004H.grib2 2026-04-26 02:40 523K
20260426T00Z_MSC_RDPS_WindDir_IsbL-0500_RLatLon0.09_PT004H.grib2 2026-04-26 02:40 539K
20260426T00Z_MSC_RDPS_WindDir_IsbL-0550_RLatLon0.09_PT004H.grib2 2026-04-26 02:40 563K
20260426T00Z_MSC_RDPS_WindDir_IsbL-0600_RLatLon0.09_PT004H.grib2 2026-04-26 02:40 597K
20260426T00Z_MSC_RDPS_WindDir_IsbL-0650_RLatLon0.09_PT004H.grib2 2026-04-26 02:40 644K
20260426T00Z_MSC_RDPS_WindDir_IsbL-0700_RLatLon0.09_PT004H.grib2 2026-04-26 02:40 693K
20260426T00Z_MSC_RDPS_WindDir_IsbL-0750_RLatLon0.09_PT004H.grib2 2026-04-26 02:40 751K
20260426T00Z_MSC_RDPS_WindDir_IsbL-0800_RLatLon0.09_PT004H.grib2 2026-04-26 02:40 820K
20260426T00Z_MSC_RDPS_WindDir_IsbL-0850_RLatLon0.09_PT004H.grib2 2026-04-26 02:40 888K
20260426T00Z_MSC_RDPS_WindDir_IsbL-0875_RLatLon0.09_PT004H.grib2 2026-04-26 02:40 911K
20260426T00Z_MSC_RDPS_WindDir_IsbL-0900_RLatLon0.09_PT004H.grib2 2026-04-26 02:40 918K
20260426T00Z_MSC_RDPS_WindDir_IsbL-0925_RLatLon0.09_PT004H.grib2 2026-04-26 02:40 922K
20260426T00Z_MSC_RDPS_WindDir_IsbL-0950_RLatLon0.09_PT004H.grib2 2026-04-26 02:40 917K
20260426T00Z_MSC_RDPS_WindDir_IsbL-0970_RLatLon0.09_PT004H.grib2 2026-04-26 02:40 923K
20260426T00Z_MSC_RDPS_WindDir_IsbL-0985_RLatLon0.09_PT004H.grib2 2026-04-26 02:40 931K
20260426T00Z_MSC_RDPS_WindDir_IsbL-1000_RLatLon0.09_PT004H.grib2 2026-04-26 02:40 945K
20260426T00Z_MSC_RDPS_WindDir_IsbL-1015_RLatLon0.09_PT004H.grib2 2026-04-26 02:40 960K
20260426T00Z_MSC_RDPS_WindGust-Max_AGL-10m_RLatLon0.09_PT004H.grib2 2026-04-26 02:40 938K
20260426T00Z_MSC_RDPS_WindGust-Min_AGL-10m_RLatLon0.09_PT004H.grib2 2026-04-26 02:40 955K
20260426T00Z_MSC_RDPS_WindGust_AGL-10m_RLatLon0.09_PT004H.grib2 2026-04-26 02:40 922K
20260426T00Z_MSC_RDPS_WindSpeed_AGL-10m_RLatLon0.09_PT004H.grib2 2026-04-26 02:40 829K
20260426T00Z_MSC_RDPS_WindSpeed_AGL-120m_RLatLon0.09_PT004H.grib2 2026-04-26 02:40 543K
20260426T00Z_MSC_RDPS_WindSpeed_AGL-40m_RLatLon0.09_PT004H.grib2 2026-04-26 02:40 547K
20260426T00Z_MSC_RDPS_WindSpeed_AGL-80m_RLatLon0.09_PT004H.grib2 2026-04-26 02:40 544K
20260426T00Z_MSC_RDPS_WindSpeed_IsbL-0001_RLatLon0.09_PT004H.grib2 2026-04-26 02:40 245K
20260426T00Z_MSC_RDPS_WindSpeed_IsbL-0005_RLatLon0.09_PT004H.grib2 2026-04-26 02:40 292K
20260426T00Z_MSC_RDPS_WindSpeed_IsbL-0010_RLatLon0.09_PT004H.grib2 2026-04-26 02:40 302K
20260426T00Z_MSC_RDPS_WindSpeed_IsbL-0020_RLatLon0.09_PT004H.grib2 2026-04-26 02:40 317K
20260426T00Z_MSC_RDPS_WindSpeed_IsbL-0030_RLatLon0.09_PT004H.grib2 2026-04-26 02:40 319K
20260426T00Z_MSC_RDPS_WindSpeed_IsbL-0050_RLatLon0.09_PT004H.grib2 2026-04-26 02:40 456K
20260426T00Z_MSC_RDPS_WindSpeed_IsbL-0100_RLatLon0.09_PT004H.grib2 2026-04-26 02:40 469K
20260426T00Z_MSC_RDPS_WindSpeed_IsbL-0150_RLatLon0.09_PT004H.grib2 2026-04-26 02:40 378K
20260426T00Z_MSC_RDPS_WindSpeed_IsbL-0175_RLatLon0.09_PT004H.grib2 2026-04-26 02:40 408K
20260426T00Z_MSC_RDPS_WindSpeed_IsbL-0200_RLatLon0.09_PT004H.grib2 2026-04-26 02:40 447K
20260426T00Z_MSC_RDPS_WindSpeed_IsbL-0225_RLatLon0.09_PT004H.grib2 2026-04-26 02:40 455K
20260426T00Z_MSC_RDPS_WindSpeed_IsbL-0250_RLatLon0.09_PT004H.grib2 2026-04-26 02:40 458K
20260426T00Z_MSC_RDPS_WindSpeed_IsbL-0275_RLatLon0.09_PT004H.grib2 2026-04-26 02:40 475K
20260426T00Z_MSC_RDPS_WindSpeed_IsbL-0300_RLatLon0.09_PT004H.grib2 2026-04-26 02:40 472K
20260426T00Z_MSC_RDPS_WindSpeed_IsbL-0350_RLatLon0.09_PT004H.grib2 2026-04-26 02:40 482K
20260426T00Z_MSC_RDPS_WindSpeed_IsbL-0400_RLatLon0.09_PT004H.grib2 2026-04-26 02:40 482K
20260426T00Z_MSC_RDPS_WindSpeed_IsbL-0450_RLatLon0.09_PT004H.grib2 2026-04-26 02:40 460K
20260426T00Z_MSC_RDPS_WindSpeed_IsbL-0500_RLatLon0.09_PT004H.grib2 2026-04-26 02:40 463K
20260426T00Z_MSC_RDPS_WindSpeed_IsbL-0550_RLatLon0.09_PT004H.grib2 2026-04-26 02:40 584K
20260426T00Z_MSC_RDPS_WindSpeed_IsbL-0600_RLatLon0.09_PT004H.grib2 2026-04-26 02:40 596K
20260426T00Z_MSC_RDPS_WindSpeed_IsbL-0650_RLatLon0.09_PT004H.grib2 2026-04-26 02:40 615K
20260426T00Z_MSC_RDPS_WindSpeed_IsbL-0700_RLatLon0.09_PT004H.grib2 2026-04-26 02:40 637K
20260426T00Z_MSC_RDPS_WindSpeed_IsbL-0750_RLatLon0.09_PT004H.grib2 2026-04-26 02:40 665K
20260426T00Z_MSC_RDPS_WindSpeed_IsbL-0800_RLatLon0.09_PT004H.grib2 2026-04-26 02:40 711K
20260426T00Z_MSC_RDPS_WindSpeed_IsbL-0850_RLatLon0.09_PT004H.grib2 2026-04-26 02:40 764K
20260426T00Z_MSC_RDPS_WindSpeed_IsbL-0875_RLatLon0.09_PT004H.grib2 2026-04-26 02:40 783K
20260426T00Z_MSC_RDPS_WindSpeed_IsbL-0900_RLatLon0.09_PT004H.grib2 2026-04-26 02:40 795K
20260426T00Z_MSC_RDPS_WindSpeed_IsbL-0925_RLatLon0.09_PT004H.grib2 2026-04-26 02:40 853K
20260426T00Z_MSC_RDPS_WindSpeed_IsbL-0950_RLatLon0.09_PT004H.grib2 2026-04-26 02:40 853K
20260426T00Z_MSC_RDPS_WindSpeed_IsbL-0970_RLatLon0.09_PT004H.grib2 2026-04-26 02:40 848K
20260426T00Z_MSC_RDPS_WindSpeed_IsbL-0985_RLatLon0.09_PT004H.grib2 2026-04-26 02:40 843K
20260426T00Z_MSC_RDPS_WindSpeed_IsbL-1000_RLatLon0.09_PT004H.grib2 2026-04-26 02:40 837K
20260426T00Z_MSC_RDPS_WindSpeed_IsbL-1015_RLatLon0.09_PT004H.grib2 2026-04-26 02:40 829K
20260426T00Z_MSC_RDPS_WindU_AGL-10m_RLatLon0.09_PT004H.grib2 2026-04-26 02:40 378K
20260426T00Z_MSC_RDPS_WindU_AGL-120m_RLatLon0.09_PT004H.grib2 2026-04-26 02:40 413K
20260426T00Z_MSC_RDPS_WindU_AGL-40m_RLatLon0.09_PT004H.grib2 2026-04-26 02:40 417K
20260426T00Z_MSC_RDPS_WindU_AGL-80m_RLatLon0.09_PT004H.grib2 2026-04-26 02:40 415K
20260426T00Z_MSC_RDPS_WindU_IsbL-0001_RLatLon0.09_PT004H.grib2 2026-04-26 02:40 238K
20260426T00Z_MSC_RDPS_WindU_IsbL-0005_RLatLon0.09_PT004H.grib2 2026-04-26 02:40 284K
20260426T00Z_MSC_RDPS_WindU_IsbL-0010_RLatLon0.09_PT004H.grib2 2026-04-26 02:40 296K
20260426T00Z_MSC_RDPS_WindU_IsbL-0020_RLatLon0.09_PT004H.grib2 2026-04-26 02:40 320K
20260426T00Z_MSC_RDPS_WindU_IsbL-0030_RLatLon0.09_PT004H.grib2 2026-04-26 02:40 352K
20260426T00Z_MSC_RDPS_WindU_IsbL-0050_RLatLon0.09_PT004H.grib2 2026-04-26 02:40 346K
20260426T00Z_MSC_RDPS_WindU_IsbL-0100_RLatLon0.09_PT004H.grib2 2026-04-26 02:40 426K
20260426T00Z_MSC_RDPS_WindU_IsbL-0150_RLatLon0.09_PT004H.grib2 2026-04-26 02:40 396K
20260426T00Z_MSC_RDPS_WindU_IsbL-0175_RLatLon0.09_PT004H.grib2 2026-04-26 02:40 424K
20260426T00Z_MSC_RDPS_WindU_IsbL-0200_RLatLon0.09_PT004H.grib2 2026-04-26 02:40 441K
20260426T00Z_MSC_RDPS_WindU_IsbL-0225_RLatLon0.09_PT004H.grib2 2026-04-26 02:40 347K
20260426T00Z_MSC_RDPS_WindU_IsbL-0250_RLatLon0.09_PT004H.grib2 2026-04-26 02:40 348K
20260426T00Z_MSC_RDPS_WindU_IsbL-0275_RLatLon0.09_PT004H.grib2 2026-04-26 02:40 362K
20260426T00Z_MSC_RDPS_WindU_IsbL-0300_RLatLon0.09_PT004H.grib2 2026-04-26 02:40 358K
20260426T00Z_MSC_RDPS_WindU_IsbL-0350_RLatLon0.09_PT004H.grib2 2026-04-26 02:40 367K
20260426T00Z_MSC_RDPS_WindU_IsbL-0400_RLatLon0.09_PT004H.grib2 2026-04-26 02:40 471K
20260426T00Z_MSC_RDPS_WindU_IsbL-0450_RLatLon0.09_PT004H.grib2 2026-04-26 02:40 468K
20260426T00Z_MSC_RDPS_WindU_IsbL-0500_RLatLon0.09_PT004H.grib2 2026-04-26 02:40 469K
20260426T00Z_MSC_RDPS_WindU_IsbL-0550_RLatLon0.09_PT004H.grib2 2026-04-26 02:40 473K
20260426T00Z_MSC_RDPS_WindU_IsbL-0600_RLatLon0.09_PT004H.grib2 2026-04-26 02:40 485K
20260426T00Z_MSC_RDPS_WindU_IsbL-0650_RLatLon0.09_PT004H.grib2 2026-04-26 02:40 502K
20260426T00Z_MSC_RDPS_WindU_IsbL-0700_RLatLon0.09_PT004H.grib2 2026-04-26 02:40 520K
20260426T00Z_MSC_RDPS_WindU_IsbL-0750_RLatLon0.09_PT004H.grib2 2026-04-26 02:40 531K
20260426T00Z_MSC_RDPS_WindU_IsbL-0800_RLatLon0.09_PT004H.grib2 2026-04-26 02:40 583K
20260426T00Z_MSC_RDPS_WindU_IsbL-0850_RLatLon0.09_PT004H.grib2 2026-04-26 02:40 627K
20260426T00Z_MSC_RDPS_WindU_IsbL-0875_RLatLon0.09_PT004H.grib2 2026-04-26 02:40 643K
20260426T00Z_MSC_RDPS_WindU_IsbL-0900_RLatLon0.09_PT004H.grib2 2026-04-26 02:40 651K
20260426T00Z_MSC_RDPS_WindU_IsbL-0925_RLatLon0.09_PT004H.grib2 2026-04-26 02:40 658K
20260426T00Z_MSC_RDPS_WindU_IsbL-0950_RLatLon0.09_PT004H.grib2 2026-04-26 02:40 650K
20260426T00Z_MSC_RDPS_WindU_IsbL-0970_RLatLon0.09_PT004H.grib2 2026-04-26 02:40 647K
20260426T00Z_MSC_RDPS_WindU_IsbL-0985_RLatLon0.09_PT004H.grib2 2026-04-26 02:40 642K
20260426T00Z_MSC_RDPS_WindU_IsbL-1000_RLatLon0.09_PT004H.grib2 2026-04-26 02:40 639K
20260426T00Z_MSC_RDPS_WindU_IsbL-1015_RLatLon0.09_PT004H.grib2 2026-04-26 02:40 634K
20260426T00Z_MSC_RDPS_WindV_AGL-10m_RLatLon0.09_PT004H.grib2 2026-04-26 02:40 424K
20260426T00Z_MSC_RDPS_WindV_AGL-120m_RLatLon0.09_PT004H.grib2 2026-04-26 02:40 412K
20260426T00Z_MSC_RDPS_WindV_AGL-40m_RLatLon0.09_PT004H.grib2 2026-04-26 02:40 414K
20260426T00Z_MSC_RDPS_WindV_AGL-80m_RLatLon0.09_PT004H.grib2 2026-04-26 02:40 413K
20260426T00Z_MSC_RDPS_WindV_IsbL-0001_RLatLon0.09_PT004H.grib2 2026-04-26 02:40 288K
20260426T00Z_MSC_RDPS_WindV_IsbL-0005_RLatLon0.09_PT004H.grib2 2026-04-26 02:40 283K
20260426T00Z_MSC_RDPS_WindV_IsbL-0010_RLatLon0.09_PT004H.grib2 2026-04-26 02:40 295K
20260426T00Z_MSC_RDPS_WindV_IsbL-0020_RLatLon0.09_PT004H.grib2 2026-04-26 02:40 311K
20260426T00Z_MSC_RDPS_WindV_IsbL-0030_RLatLon0.09_PT004H.grib2 2026-04-26 02:40 311K
20260426T00Z_MSC_RDPS_WindV_IsbL-0050_RLatLon0.09_PT004H.grib2 2026-04-26 02:40 341K
20260426T00Z_MSC_RDPS_WindV_IsbL-0100_RLatLon0.09_PT004H.grib2 2026-04-26 02:40 328K
20260426T00Z_MSC_RDPS_WindV_IsbL-0150_RLatLon0.09_PT004H.grib2 2026-04-26 02:40 393K
20260426T00Z_MSC_RDPS_WindV_IsbL-0175_RLatLon0.09_PT004H.grib2 2026-04-26 02:40 421K
20260426T00Z_MSC_RDPS_WindV_IsbL-0200_RLatLon0.09_PT004H.grib2 2026-04-26 02:40 340K
20260426T00Z_MSC_RDPS_WindV_IsbL-0225_RLatLon0.09_PT004H.grib2 2026-04-26 02:40 344K
20260426T00Z_MSC_RDPS_WindV_IsbL-0250_RLatLon0.09_PT004H.grib2 2026-04-26 02:40 345K
20260426T00Z_MSC_RDPS_WindV_IsbL-0275_RLatLon0.09_PT004H.grib2 2026-04-26 02:40 360K
20260426T00Z_MSC_RDPS_WindV_IsbL-0300_RLatLon0.09_PT004H.grib2 2026-04-26 02:40 355K
20260426T00Z_MSC_RDPS_WindV_IsbL-0350_RLatLon0.09_PT004H.grib2 2026-04-26 02:40 388K
20260426T00Z_MSC_RDPS_WindV_IsbL-0400_RLatLon0.09_PT004H.grib2 2026-04-26 02:40 387K
20260426T00Z_MSC_RDPS_WindV_IsbL-0450_RLatLon0.09_PT004H.grib2 2026-04-26 02:40 362K
20260426T00Z_MSC_RDPS_WindV_IsbL-0500_RLatLon0.09_PT004H.grib2 2026-04-26 02:40 364K
20260426T00Z_MSC_RDPS_WindV_IsbL-0550_RLatLon0.09_PT004H.grib2 2026-04-26 02:40 470K
20260426T00Z_MSC_RDPS_WindV_IsbL-0600_RLatLon0.09_PT004H.grib2 2026-04-26 02:40 480K
20260426T00Z_MSC_RDPS_WindV_IsbL-0650_RLatLon0.09_PT004H.grib2 2026-04-26 02:40 496K
20260426T00Z_MSC_RDPS_WindV_IsbL-0700_RLatLon0.09_PT004H.grib2 2026-04-26 02:40 515K
20260426T00Z_MSC_RDPS_WindV_IsbL-0750_RLatLon0.09_PT004H.grib2 2026-04-26 02:40 540K
20260426T00Z_MSC_RDPS_WindV_IsbL-0800_RLatLon0.09_PT004H.grib2 2026-04-26 02:40 579K
20260426T00Z_MSC_RDPS_WindV_IsbL-0850_RLatLon0.09_PT004H.grib2 2026-04-26 02:40 623K
20260426T00Z_MSC_RDPS_WindV_IsbL-0875_RLatLon0.09_PT004H.grib2 2026-04-26 02:40 638K
20260426T00Z_MSC_RDPS_WindV_IsbL-0900_RLatLon0.09_PT004H.grib2 2026-04-26 02:40 646K
20260426T00Z_MSC_RDPS_WindV_IsbL-0925_RLatLon0.09_PT004H.grib2 2026-04-26 02:40 654K
20260426T00Z_MSC_RDPS_WindV_IsbL-0950_RLatLon0.09_PT004H.grib2 2026-04-26 02:40 644K
20260426T00Z_MSC_RDPS_WindV_IsbL-0970_RLatLon0.09_PT004H.grib2 2026-04-26 02:40 644K
20260426T00Z_MSC_RDPS_WindV_IsbL-0985_RLatLon0.09_PT004H.grib2 2026-04-26 02:40 640K
20260426T00Z_MSC_RDPS_WindV_IsbL-1000_RLatLon0.09_PT004H.grib2 2026-04-26 02:40 634K
20260426T00Z_MSC_RDPS_WindV_IsbL-1015_RLatLon0.09_PT004H.grib2 2026-04-26 02:40 764K